[[{"header":{"parameterUnit":"m.s-1","parameterCategory":1,"la1":30.2991,"la2":30.254,"lo1":-89.0895,"lo2":-89.0444,"dy":0.0017,"dx":0.0017,"nx":28,"ny":28,"refTime":"2024-03-15T09:00:00:Z","depth":0,"parameterNumber":2,"parameterNumberName":"U-component_of_WINDS"},"data":[0,0,0,0,0,0,0,0,0,0,0,0,0,0,0,0,0,0,0,0,0,0,0,0,0,0,0,0,0,0,0,0,0,0,0,0,0,0,0,0,0,0,0,0,0,0,0,0,0,0,0,0,0,0,0,0,0,0,-1.9594,-1.9594,0,-1.9584,-1.9583,-1.9583,-1.9539,-1.9538,-1.9537,-1.9536,-1.9526,-1.9526,-1.9527,0,0,0,0,0,0,0,0,0,0,0,0,0,-1.9576,-1.9577,-1.9594,-1.9594,-1.9594,-1.9584,-1.9583,-1.9583,-1.9539,-1.9538,-1.9537,-1.9535,-1.9526,-1.9526,-1.9527,0,0,0,0,0,0,0,0,0,0,0,0,0,-1.9577,-1.9577,-1.9594,-1.9571,-1.9568,-1.9584,-1.9583,-1.9583,-1.9539,-1.9538,-1.9536,-1.9535,-1.9525,-1.9526,-1.9527,-1.9565,0,0,-1.953,-1.9531,0,0,0,0,0,0,0,0,-1.9577,-1.9578,-1.9574,-1.9572,-1.957,-1.9561,-1.9573,-1.9577,-1.954,-1.955,-1.9536,-1.9534,-1.9539,-1.9539,-1.954,-1.9564,-1.9564,-1.9531,-1.9531,-1.9532,-1.9532,0,0,0,0,0,0,0,-1.9577,-1.9578,-1.959,-1.9574,-1.9571,-1.9561,-1.9559,-1.9574,-1.9553,-1.9549,-1.9546,-1.9545,-1.9537,-1.9539,-1.9539,-1.9564,-1.9531,-1.9531,-1.9532,-1.9532,-1.9617,-1.9618,0,0,0,0,0,0,-1.958,-1.9578,-1.959,-1.959,-1.957,-1.9562,-1.956,-1.9565,-1.9553,-1.955,-1.9547,-1.9543,-1.9538,-1.9538,-1.9539,-1.958,-1.9532,-1.9533,-1.9533,-1.9615,-1.9617,-1.9619,0,0,0,0,0,0,-1.958,-1.9582,-1.9591,-1.9583,-1.9583,-1.9564,-1.957,-1.9566,-1.9568,-1.9551,-1.9547,-1.9552,-1.9537,-1.9538,-1.9558,-1.958,-1.9533,-1.9534,-1.9613,-1.9616,-1.9618,-1.9665,0,0,0,0,0,0,-1.958,-1.9582,-1.9596,-1.9584,-1.9584,-1.961,-1.9571,-1.9567,-1.957,-1.9565,-1.9555,-1.9552,-1.9536,-1.9557,-1.9559,-1.958,-1.9535,-1.9611,-1.9614,-1.9617,-1.9661,-1.9669,-1.9675,0,0,0,0,0,-1.9579,-1.961,-1.9597,-1.9598,-1.9601,-1.9611,-1.9612,-1.9592,-1.9572,-1.9585,-1.9574,-1.9553,-1.9577,-1.9559,-1.9562,-1.9583,-1.961,-1.9613,-1.9617,-1.9658,-1.9667,-1.9675,0,0,0,0,0,0,-1.9625,-1.9608,-1.9593,-1.9621,-1.9618,-1.9604,-1.962,-1.9602,-1.9605,-1.9601,-1.9576,-1.9574,-1.9598,-1.9593,-1.9574,-1.9618,-1.959,-1.9594,-1.962,-1.9629,-1.9635,-1.9635,-1.9536,0,0,0,0,0,-1.9639,-1.9649,-1.9633,-1.9659,-1.9658,-1.964,-1.9644,-1.9629,-1.9625,-1.9624,-1.9614,-1.9612,-1.9619,-1.9624,-1.9629,-1.9661,-1.9657,-1.9677,-1.9684,-1.9689,-1.9693,-1.9708,-1.9716,-1.9631,-1.9631,-1.963,0,0,-1.9666,-1.9658,-1.9666,-1.9668,-1.9664,-1.9674,-1.9639,-1.9652,-1.966,-1.9626,-1.9644,-1.9637,-1.9633,-1.9659,-1.967,-1.9655,-1.9716,-1.9694,-1.9699,-1.9699,-1.9712,-1.972,-1.9728,-1.9633,-1.9633,-1.9632,0,0,-1.9722,-1.9717,-1.9737,-1.9734,-1.9728,-1.9716,-1.9721,-1.971,-1.9704,-1.9722,-1.9697,-1.9706,-1.9719,-1.9716,-1.9716,-1.9771,-1.975,-1.9774,-1.9808,-1.9823,-1.983,-1.9836,-1.9854,-1.9861,-1.9777,-1.9778,-1.9778,0,-1.9757,-1.9771,-1.975,-1.9764,-1.9766,-1.9735,-1.9756,-1.9754,-1.975,-1.9752,-1.9736,-1.9751,-1.9746,-1.977,-1.9783,-1.9785,-1.9789,-1.9774,-1.9831,-1.9836,-1.9841,-1.9858,-1.9865,-1.978,-1.978,-1.978,-1.9779,0,-1.9814,-1.9825,-1.9842,-1.9839,-1.9842,-1.986,-1.9841,-1.9847,-1.9832,-1.9822,-1.984,-1.9833,-1.9836,-1.9841,-1.9827,-1.9864,-1.9854,-1.9835,-1.9806,-1.9853,-1.9868,-1.9874,-1.9784,-1.9783,-1.9782,-1.9782,0,0,-1.9897,-1.9882,-1.9888,-1.9886,-1.9878,-1.9886,-1.9902,-1.9905,-1.991,-1.9909,-1.9921,-1.9933,-1.9914,-1.9915,-1.99,-1.9914,-1.9956,-1.9892,-1.9892,-1.9903,-1.9994,-2.0007,-2.0015,-1.9943,-1.9944,-1.9945,-1.9994,0,-1.9949,-1.9974,-1.9955,-1.9984,-1.9993,-1.9965,-1.9979,-1.9975,-1.9966,-1.9972,-1.9962,-1.997,-1.9946,-1.9946,-1.9959,-1.9948,-1.9973,-1.9945,-1.9953,-1.9954,-1.9953,-2.0023,-2.0038,-2.0084,-2.0,-2.0001,-2.0002,0,-2.0012,-2.0013,-2.0042,-2.0031,-2.0034,-2.0047,-2.0047,-2.0055,-2.005,-2.0042,-2.0043,-2.0024,-2.0039,-2.0012,-2.0031,-2.0012,-2.0015,-2.001,-2.0011,-2.001,-1.9979,-2.0022,-2.0098,-2.0104,-2.0011,-2.001,-2.001,0,-2.0067,-2.0076,-2.0095,-2.0094,-2.0082,-2.0091,-2.0087,-2.0081,-2.0083,-2.0084,-2.0086,-2.0089,-2.009,-2.0093,-2.0075,-2.0057,-2.0097,-2.0068,-2.009,-2.009,-2.0098,-2.0097,-2.0174,-2.0103,-2.0103,-2.0103,-2.0103,0,-2.0125,-2.0144,-2.0119,-2.013,-2.0151,-2.0129,-2.015,-2.0143,-2.0137,-2.0147,-2.0123,-2.0132,-2.011,-2.0117,-2.0104,-2.0121,-2.0123,-2.0116,-2.0112,-2.0117,-2.0118,-2.0117,-2.0113,-2.0105,-2.0104,-2.0104,-2.0104,0,-2.019,-2.0174,-2.0192,-2.0179,-2.0177,-2.0192,-2.0181,-2.0191,-2.018,-2.0192,-2.0193,-2.0177,-2.0184,-2.0167,-2.0172,-2.0163,-2.0188,-2.018,-2.0189,-2.0186,-2.0208,-2.0205,-2.0285,-2.0294,-2.0219,-2.022,-2.0221,0,-2.0227,-2.0241,-2.0229,-2.0234,-2.023,-2.0238,-2.024,-2.022,-2.0223,-2.0219,-2.0229,-2.0234,-2.0236,-2.0249,-2.0237,-2.0241,-2.0231,-2.0259,-2.0231,-2.0236,-2.0229,-2.0228,-2.0229,-2.0264,-2.0265,-2.0266,-2.0266,0,-2.0295,-2.0286,-2.029,-2.0291,-2.0295,-2.0295,-2.0294,-2.0299,-2.0277,-2.0282,-2.0289,-2.0291,-2.0295,-2.03,-2.0301,-2.0296,-2.0277,-2.0275,-2.028,-2.0284,-2.0289,-2.0285,-2.0202,-2.0273,-2.0272,-2.0272,-2.0272,-2.0271,-2.0345,-2.0356,-2.0349,-2.0354,-2.0351,-2.035,-2.0358,-2.0348,-2.0353,-2.0355,-2.0343,-2.0352,-2.0347,-2.0346,-2.0343,-2.0349,-2.0337,-2.0344,-2.0346,-2.0348,-2.035,-2.0289,-2.035,-2.035,-2.0349,-2.0349,-2.0349,0,-2.041,-2.0404,-2.0409,-2.0407,-2.0412,-2.0394,-2.0391,-2.0396,-2.0404,-2.04,-2.0403,-2.041,-2.0415,-2.0404,-2.0407,-2.0414,-2.0405,-2.0415,-2.0413,-2.0412,-2.0362,-2.0357,-2.0422,-2.0422,-2.0422,-2.0422,-2.0422,-2.0422,-2.0444,-2.046,-2.045,-2.0465,-2.0459,-2.0467,-2.0466,-2.0466,-2.0462,-2.0471,-2.0475,-2.0467,-2.0461,-2.0463,-2.0466,-2.0463,-2.0464,-2.0476,-2.047,-2.0423,-2.0416,-2.0409,-2.0404,-2.0477,-2.0477,-2.0519,-2.0519,-2.052]},{"header":{"parameterUnit":"m.s-1","parameterCategory":1,"la1":30.2991,"la2":30.254,"lo1":-89.0895,"lo2":-89.0444,"dy":0.0017,"dx":0.0017,"nx":28,"ny":28,"refTime":"2024-03-15T09:00:00:Z","depth":0,"parameterNumber":3,"parameterNumberName":"V-component_of_WINDS"},"data":[0,0,0,0,0,0,0,0,0,0,0,0,0,0,0,0,0,0,0,0,0,0,0,0,0,0,0,0,0,0,0,0,0,0,0,0,0,0,0,0,0,0,0,0,0,0,0,0,0,0,0,0,0,0,0,0,0,0,0.7699,0.77,0,0.7807,0.7808,0.7809,0.7888,0.7888,0.7889,0.789,0.8002,0.8004,0.8006,0,0,0,0,0,0,0,0,0,0,0,0,0,0.7563,0.7565,0.7699,0.77,0.7701,0.7807,0.7808,0.781,0.7888,0.7888,0.7889,0.789,0.8001,0.8004,0.8006,0,0,0,0,0,0,0,0,0,0,0,0,0,0.7641,0.7565,0.7698,0.7753,0.7759,0.7806,0.7808,0.781,0.7887,0.7888,0.7889,0.789,0.8,0.8003,0.8007,0.8009,0,0,0.8018,0.8019,0,0,0,0,0,0,0,0,0.7637,0.7646,0.7744,0.7749,0.7756,0.7835,0.7801,0.7877,0.7887,0.7839,0.789,0.7891,0.7945,0.7953,0.7972,0.8014,0.8019,0.8018,0.802,0.8022,0.8023,0,0,0,0,0,0,0,0.7631,0.7642,0.7742,0.7745,0.7753,0.7773,0.7785,0.7816,0.7885,0.7843,0.7849,0.7861,0.7949,0.7968,0.7975,0.8021,0.8018,0.8021,0.8023,0.8025,0.8074,0.8074,0,0,0,0,0,0,0.7617,0.7637,0.7738,0.7745,0.7697,0.7775,0.7788,0.7809,0.7885,0.7898,0.786,0.7864,0.7961,0.7971,0.7979,0.7989,0.8022,0.8025,0.8027,0.8075,0.8074,0.8073,0,0,0,0,0,0,0.7614,0.7625,0.7734,0.7693,0.7708,0.7776,0.7798,0.781,0.7829,0.7898,0.7911,0.7866,0.7963,0.7974,0.8002,0.7994,0.8027,0.803,0.8076,0.8075,0.8074,0.8008,0,0,0,0,0,0,0.7609,0.7623,0.7624,0.7692,0.771,0.7754,0.7797,0.7812,0.7835,0.7842,0.7907,0.7919,0.7964,0.7996,0.8005,0.8,0.8033,0.8077,0.8076,0.8074,0.8011,0.8004,0.7999,0,0,0,0,0,0.7604,0.7601,0.7624,0.7636,0.7712,0.7753,0.7763,0.7815,0.7834,0.7836,0.7881,0.7917,0.7993,0.7998,0.8009,0.8004,0.8078,0.8076,0.8074,0.8014,0.8006,0.7999,0,0,0,0,0,0,0.7531,0.7611,0.7637,0.7655,0.7697,0.7766,0.777,0.7804,0.7841,0.7846,0.7909,0.7923,0.7945,0.7977,0.7982,0.8012,0.804,0.804,0.799,0.7983,0.7977,0.797,0.8036,0,0,0,0,0,0.7517,0.7542,0.7611,0.7621,0.764,0.7701,0.7721,0.7757,0.7803,0.7821,0.7867,0.791,0.7945,0.7966,0.8,0.8016,0.8033,0.8018,0.8012,0.8007,0.8007,0.802,0.8015,0.8067,0.8067,0.8067,0,0,0.7488,0.7535,0.7547,0.7607,0.7644,0.767,0.7716,0.7741,0.7762,0.7825,0.7855,0.789,0.7943,0.7965,0.7977,0.7993,0.7996,0.8004,0.8,0.8003,0.8017,0.8012,0.8008,0.8066,0.8066,0.8066,0,0,0.7449,0.7486,0.75,0.7536,0.759,0.7631,0.7634,0.7699,0.7725,0.7755,0.7804,0.783,0.7886,0.7923,0.7948,0.7925,0.7961,0.7935,0.7904,0.7916,0.7912,0.7908,0.7902,0.7899,0.7934,0.7934,0.7934,0,0.7407,0.7448,0.7502,0.7526,0.7552,0.761,0.7625,0.7657,0.772,0.7738,0.7754,0.7828,0.7867,0.79,0.7895,0.7913,0.792,0.7928,0.7908,0.7905,0.7903,0.7898,0.7895,0.7931,0.7931,0.7932,0.7932,0,0.7394,0.7422,0.7427,0.7487,0.7513,0.7532,0.759,0.7611,0.7645,0.7685,0.7716,0.7766,0.7813,0.7823,0.7856,0.7861,0.7869,0.7896,0.7925,0.7893,0.789,0.7888,0.7926,0.7927,0.7928,0.7929,0,0,0.7313,0.7403,0.7404,0.7433,0.7498,0.7521,0.7544,0.759,0.7607,0.7649,0.767,0.7718,0.7743,0.7773,0.7811,0.7821,0.7803,0.7847,0.7849,0.7839,0.7814,0.7794,0.7791,0.7826,0.7826,0.7826,0.781,0,0.7286,0.7329,0.7379,0.7405,0.7433,0.7489,0.7509,0.7552,0.759,0.762,0.7662,0.7695,0.7726,0.7744,0.7757,0.7802,0.7799,0.7804,0.7849,0.785,0.7835,0.7789,0.7768,0.7751,0.7809,0.7808,0.7808,0,0.726,0.73,0.7328,0.7393,0.7407,0.7423,0.7471,0.7498,0.7549,0.7576,0.7609,0.765,0.7678,0.7703,0.7744,0.7746,0.7768,0.7793,0.7794,0.7801,0.7828,0.7797,0.7746,0.7744,0.7806,0.7806,0.7806,0,0.72,0.726,0.7286,0.7309,0.7384,0.7395,0.7427,0.7479,0.7504,0.7545,0.7563,0.7606,0.7631,0.7665,0.7718,0.773,0.7753,0.7782,0.7778,0.7777,0.7782,0.7781,0.7735,0.7792,0.7792,0.7792,0.7792,0,0.7166,0.7182,0.7261,0.7277,0.7297,0.7355,0.7374,0.7411,0.7457,0.7482,0.7533,0.7556,0.7623,0.7654,0.7696,0.7724,0.7735,0.7758,0.777,0.7755,0.7752,0.7771,0.7774,0.7792,0.7792,0.7792,0.7792,0,0.7103,0.7156,0.7188,0.7257,0.7275,0.7287,0.7347,0.7365,0.7406,0.7438,0.7449,0.7513,0.7553,0.7609,0.7665,0.7693,0.7717,0.7733,0.77,0.7707,0.77,0.7701,0.7666,0.7666,0.772,0.772,0.7719,0,0.7078,0.7092,0.7163,0.7184,0.7214,0.7246,0.7272,0.7331,0.7356,0.7415,0.7427,0.7471,0.7509,0.757,0.7622,0.7666,0.7686,0.7671,0.7693,0.7678,0.7688,0.7687,0.769,0.7666,0.7665,0.7664,0.7663,0,0.703,0.7056,0.7091,0.7136,0.7166,0.7205,0.7246,0.726,0.7327,0.7353,0.7394,0.7424,0.7482,0.7525,0.7577,0.7611,0.7649,0.7656,0.7658,0.7644,0.7625,0.7637,0.7687,0.7657,0.7657,0.7658,0.7658,0.7659,0.6987,0.7003,0.7056,0.7094,0.7131,0.7168,0.719,0.7234,0.7269,0.7321,0.7353,0.7393,0.7446,0.7519,0.7551,0.7585,0.76,0.7602,0.7603,0.7603,0.7599,0.7618,0.7594,0.7594,0.7594,0.7595,0.7595,0,0.6943,0.698,0.7015,0.7071,0.7101,0.7134,0.7181,0.7205,0.724,0.7285,0.7321,0.737,0.7413,0.7469,0.7516,0.7532,0.7551,0.7542,0.7543,0.7551,0.7581,0.7576,0.7527,0.7527,0.7527,0.7527,0.7527,0.7527,0.6924,0.6953,0.6986,0.7034,0.7072,0.7111,0.7136,0.7171,0.7208,0.726,0.7295,0.7332,0.7382,0.7433,0.7475,0.749,0.7506,0.7493,0.7514,0.7542,0.7548,0.7554,0.7549,0.7495,0.7495,0.7481,0.7481,0.7481]}]]